TimeCST,TemperatureF,Dew PointF,Humidity,Sea Level PressureIn,VisibilityMPH,Wind Direction,Wind SpeedMPH,Gust SpeedMPH,PrecipitationIn,Events,Conditions,WindDirDegrees,DateUTC
12:15 AM,19.4,6.8,58,30.00,10.0,NNW,3.5,-,N/A,,Overcast,330,2013-02-02 06:15:00
12:35 AM,19.4,8.6,63,30.01,10.0,NW,9.2,-,N/A,,Overcast,320,2013-02-02 06:35:00
12:55 AM,19.4,8.6,63,30.01,10.0,NW,13.8,18.4,N/A,,Overcast,320,2013-02-02 06:55:00
1:15 AM,19.4,8.6,63,30.01,10.0,NW,17.3,20.7,N/A,,Overcast,320,2013-02-02 07:15:00
1:35 AM,19.4,8.6,63,30.02,10.0,NW,21.9,27.6,N/A,,Overcast,320,2013-02-02 07:35:00
1:55 AM,19.4,8.6,63,30.03,10.0,NW,19.6,23.0,N/A,,Overcast,320,2013-02-02 07:55:00
2:15 AM,17.6,8.6,68,30.04,10.0,NNW,15.0,-,N/A,,Overcast,330,2013-02-02 08:15:00
2:35 AM,17.6,6.8,63,30.05,9.0,NW,18.4,-,N/A,,Overcast,320,2013-02-02 08:35:00
2:55 AM,17.6,6.8,63,30.05,10.0,NW,13.8,-,N/A,,Overcast,320,2013-02-02 08:55:00
3:15 AM,15.8,5.0,62,30.06,10.0,NW,15.0,20.7,N/A,,Overcast,320,2013-02-02 09:15:00
3:35 AM,15.8,6.8,68,30.07,8.0,NNW,17.3,-,N/A,,Overcast,330,2013-02-02 09:35:00
3:55 AM,12.2,-13.0,32,30.08,10.0,NW,17.3,-,N/A,,Scattered Clouds,320,2013-02-02 09:55:00
4:15 AM,12.2,-13.0,32,30.08,10.0,NNW,16.1,-,N/A,,Clear,330,2013-02-02 10:15:00
4:35 AM,12.2,-5.8,45,30.08,10.0,NNW,13.8,-,N/A,,Mostly Cloudy,330,2013-02-02 10:35:00
4:55 AM,10.4,-4.0,52,30.09,10.0,NNW,15.0,-,N/A,,Mostly Cloudy,330,2013-02-02 10:55:00
5:15 AM,10.4,-5.8,48,30.10,10.0,NNW,16.1,19.6,N/A,,Scattered Clouds,330,2013-02-02 11:15:00
5:35 AM,8.6,-5.8,52,30.11,10.0,NNW,17.3,-,N/A,,Partly Cloudy,340,2013-02-02 11:35:00
5:55 AM,8.6,-5.8,52,30.12,10.0,NNW,16.1,-,N/A,,Clear,340,2013-02-02 11:55:00
6:15 AM,6.8,-5.8,56,30.12,10.0,NNW,12.7,-,N/A,,Clear,340,2013-02-02 12:15:00
6:35 AM,6.8,-5.8,56,30.13,10.0,NNW,12.7,-,N/A,,Clear,340,2013-02-02 12:35:00
6:55 AM,6.8,-5.8,56,30.14,10.0,NNW,13.8,-,N/A,,Clear,340,2013-02-02 12:55:00
7:15 AM,6.8,-7.6,52,30.14,10.0,NNW,10.4,-,N/A,,Clear,340,2013-02-02 13:15:00
7:35 AM,5.0,-7.6,56,30.15,10.0,NNW,9.2,-,N/A,,Clear,330,2013-02-02 13:35:00
7:55 AM,5.0,-7.6,56,30.15,10.0,NNW,9.2,-,N/A,,Clear,340,2013-02-02 13:55:00
8:15 AM,6.8,-5.8,56,30.15,10.0,NNW,9.2,-,N/A,,Clear,340,2013-02-02 14:15:00
8:35 AM,6.8,-7.6,52,30.16,10.0,NNW,10.4,-,N/A,,Clear,340,2013-02-02 14:35:00
8:55 AM,6.8,-7.6,52,30.16,10.0,NNW,8.1,-,N/A,,Clear,340,2013-02-02 14:55:00
9:15 AM,6.8,-9.4,48,30.15,10.0,North,5.8,-,N/A,,Scattered Clouds,360,2013-02-02 15:15:00
9:35 AM,8.6,-7.6,48,30.16,10.0,NNW,6.9,-,N/A,,Partly Cloudy,340,2013-02-02 15:35:00
9:55 AM,8.6,-7.6,48,30.16,10.0,NNW,5.8,-,N/A,,Mostly Cloudy,330,2013-02-02 15:55:00
10:15 AM,8.6,-5.8,52,30.16,10.0,WNW,5.8,-,N/A,,Mostly Cloudy,300,2013-02-02 16:15:00
10:35 AM,10.4,-25.6,18,30.16,10.0,NW,4.6,-,N/A,,Mostly Cloudy,310,2013-02-02 16:35:00
10:55 AM,10.4,-27.4,17,30.16,10.0,NNW,4.6,-,N/A,,Partly Cloudy,330,2013-02-02 16:55:00
11:15 AM,10.4,-25.6,18,30.15,10.0,NW,3.5,-,N/A,,Scattered Clouds,310,2013-02-02 17:15:00
11:35 AM,12.2,-22.0,20,30.15,10.0,Calm,Calm,-,N/A,,Partly Cloudy,0,2013-02-02 17:35:00
11:55 AM,14.0,-18.4,22,30.15,10.0,NNW,3.5,-,N/A,,Clear,340,2013-02-02 17:55:00
12:15 PM,15.8,-16.6,23,30.15,10.0,WNW,5.8,-,N/A,,Partly Cloudy,300,2013-02-02 18:15:00
12:35 PM,15.8,-14.8,25,30.14,10.0,WNW,5.8,-,N/A,,Scattered Clouds,300,2013-02-02 18:35:00
12:55 PM,15.8,-13.0,27,30.13,10.0,West,6.9,-,N/A,,Mostly Cloudy,270,2013-02-02 18:55:00
1:15 PM,15.8,-11.2,30,30.12,10.0,West,5.8,-,N/A,,Scattered Clouds,270,2013-02-02 19:15:00
1:35 PM,17.6,-7.6,32,30.11,10.0,West,5.8,-,N/A,,Mostly Cloudy,260,2013-02-02 19:35:00
1:55 PM,17.6,-5.8,35,30.09,8.0,SW,4.6,-,N/A,,Overcast,230,2013-02-02 19:55:00
2:15 PM,19.4,-2.2,39,30.07,10.0,WSW,4.6,-,N/A,,Scattered Clouds,240,2013-02-02 20:15:00
2:35 PM,21.2,-0.4,39,30.06,10.0,Calm,Calm,-,N/A,,Clear,0,2013-02-02 20:35:00
2:55 PM,19.4,-0.4,42,30.05,10.0,South,5.8,-,N/A,,Scattered Clouds,190,2013-02-02 20:55:00
3:15 PM,19.4,3.2,49,30.05,10.0,SSW,8.1,-,N/A,,Overcast,200,2013-02-02 21:15:00
3:35 PM,19.4,-20.2,16,30.05,10.0,SW,6.9,-,N/A,,Overcast,230,2013-02-02 21:35:00
3:55 PM,21.2,-18.4,17,30.05,10.0,SSW,8.1,-,N/A,,Overcast,210,2013-02-02 21:55:00
4:15 PM,21.2,-11.2,24,30.03,4.0,SW,10.4,-,N/A,,Overcast,220,2013-02-02 22:15:00
4:35 PM,21.2,21.2,100,30.02,1.8,SSW,10.4,-,N/A,,Overcast,200,2013-02-02 22:35:00
4:55 PM,21.2,-11.2,24,30.01,1.2,SSW,9.2,-,N/A,,Overcast,200,2013-02-02 22:55:00
5:15 PM,21.2,3.2,46,30.00,2.0,South,11.5,-,N/A,,Overcast,190,2013-02-02 23:15:00
5:35 PM,21.2,-14.8,20,29.98,3.0,South,11.5,-,N/A,,Overcast,190,2013-02-02 23:35:00
5:55 PM,21.2,1.4,42,29.98,3.0,South,11.5,-,N/A,,Overcast,180,2013-02-02 23:55:00
6:15 PM,21.2,-4.0,33,29.97,3.0,South,11.5,-,N/A,,Overcast,180,2013-02-03 00:15:00
6:35 PM,21.2,8.6,58,29.97,10.0,South,12.7,-,N/A,,Overcast,180,2013-02-03 00:35:00
6:55 PM,21.2,12.2,68,29.96,9.0,South,11.5,-,N/A,,Overcast,170,2013-02-03 00:55:00
7:15 PM,23.0,14.0,68,29.95,10.0,South,10.4,-,N/A,,Overcast,190,2013-02-03 01:15:00
7:35 PM,23.0,15.8,74,29.95,10.0,South,5.8,-,N/A,,Overcast,190,2013-02-03 01:35:00
7:55 PM,24.8,15.8,69,29.94,6.0,SSW,10.4,-,N/A,,Overcast,200,2013-02-03 01:55:00
8:15 PM,24.8,17.6,74,29.94,3.0,SSW,10.4,-,N/A,,Overcast,210,2013-02-03 02:15:00
8:35 PM,26.6,17.6,69,29.92,8.0,SW,9.2,-,N/A,,Overcast,220,2013-02-03 02:35:00
8:55 PM,26.6,19.4,74,29.92,10.0,WSW,6.9,-,N/A,,Overcast,250,2013-02-03 02:55:00
9:15 PM,28.4,21.2,74,29.92,4.0,West,10.4,-,N/A,,Overcast,270,2013-02-03 03:15:00
9:35 PM,30.2,24.8,80,29.93,6.0,NW,21.9,28.8,N/A,,Overcast,310,2013-02-03 03:35:00
9:55 PM,30.2,23.0,75,29.95,4.0,NW,26.5,35.7,N/A,,Overcast,310,2013-02-03 03:55:00
10:15 PM,28.4,21.2,74,29.95,6.0,NW,25.3,34.5,N/A,,Overcast,310,2013-02-03 04:15:00
10:35 PM,28.4,17.6,64,29.96,5.0,NW,28.8,36.8,N/A,,Overcast,310,2013-02-03 04:35:00
10:55 PM,24.8,15.8,69,29.97,7.0,NW,26.5,34.5,N/A,,Overcast,310,2013-02-03 04:55:00
11:15 PM,23.0,14.0,68,29.97,6.0,NW,25.3,32.2,N/A,,Mostly Cloudy,320,2013-02-03 05:15:00
11:35 PM,23.0,14.0,68,29.99,5.0,NW,25.3,31.1,N/A,,Mostly Cloudy,320,2013-02-03 05:35:00
11:55 PM,21.2,12.2,68,30.00,7.0,NW,25.3,32.2,N/A,,Overcast,320,2013-02-03 05:55:00